Change the Weather History Date:

Monday, April 7, 2014

  Actual Average Record
Temperature  
Mean Temperature 76 °F -  
Max Temperature 86 °F 78 °F 87 °F (1999)
Min Temperature 68 °F 62 °F 45 °F (1950)
Cooling Degree Days 11    
Growing Degree Days 26 (Base 50)    
Moisture  
Dew Point 67 °F    
Average Humidity 73    
Maximum Humidity 87    
Minimum Humidity 51    
Precipitation  
Precipitation 0.00 in - - ()
Sea Level Pressure  
Sea Level Pressure 29.89 in    
Wind  
Wind Speed 12 mph (South)    
Max Wind Speed 24 mph    
Max Gust Speed 32 mph    
Visibility 10 miles    
Events      
Averages and records for this station are not official NWS values.
T = Trace of Precipitation, MM = Missing Value Source: NWS Daily Summary

Daily Weather History Graph

Daily Weather History Graph

Search for Another Location

Airport or City:

Trip Planner

Search our weather history database for the weather conditions in past years. The results will help you decide how hot, cold, wet, or windy it might be!

Date:

Astronomy

Apr. 07, 2014 Rise Set
Actual Time 7:14 AM EDT 7:51 PM EDT
Civil Twilight 6:50 AM EDT 8:15 PM EDT
Nautical Twilight 6:22 AM EDT 8:43 PM EDT
Astronomical Twilight 5:54 AM EDT 9:11 PM EDT
Moon 1:22 PM EDT (4/7) 2:14 AM EDT (4/7)
Length of Visible Light 13h 24m
Length of Day
12h 37m
First Quarter, 53% of the Moon is Illuminated
Apr 7
First Quarter
Apr 15
Full
Apr 22
Last Quarter
Apr 29
New
May 6
First Quarter

Hourly Weather History & Observations

Time (EDT) Temp. Heat Index Dew Point Humidity Pressure Visibility Wind Dir Wind Speed Gust Speed Precip Events Conditions
12:53 AM 70.0 °F - 64.9 °F 84% 29.94 in 10.0 mi South 5.8 mph - N/A   Clear
1:53 AM 68.0 °F - 64.0 °F 87% 29.93 in 10.0 mi South 5.8 mph - N/A   Clear
2:53 AM 70.0 °F - 66.0 °F 87% 29.91 in 10.0 mi South 8.1 mph - N/A   Clear
3:53 AM 71.1 °F - 66.0 °F 84% 29.89 in 10.0 mi South 11.5 mph - N/A   Clear
4:53 AM 71.1 °F - 64.9 °F 81% 29.88 in 10.0 mi SSE 6.9 mph - N/A   Clear
5:53 AM 71.1 °F - 66.0 °F 84% 29.90 in 10.0 mi SSE 11.5 mph - N/A   Clear
6:53 AM 70.0 °F - 64.9 °F 84% 29.91 in 10.0 mi SE 6.9 mph - N/A   Clear
7:53 AM 70.0 °F - 64.9 °F 84% 29.92 in 10.0 mi SSE 9.2 mph - N/A   Clear
8:53 AM 72.0 °F - 66.9 °F 84% 29.92 in 10.0 mi SSE 10.4 mph - N/A   Clear
9:53 AM 75.9 °F - 66.9 °F 74% 29.91 in 10.0 mi SSE 16.1 mph - N/A   Clear
10:53 AM 80.1 °F 81.9 °F 64.9 °F 60% 29.91 in 10.0 mi SSE 15.0 mph 24.2 mph N/A   Clear
11:53 AM 84.0 °F 85.4 °F 64.0 °F 51% 29.91 in 10.0 mi South 19.6 mph 28.8 mph N/A   Clear
12:53 PM 84.9 °F 88.2 °F 68.0 °F 57% 29.89 in 10.0 mi South 23.0 mph - N/A   Clear
1:53 PM 84.0 °F 87.8 °F 69.1 °F 61% 29.88 in 10.0 mi South 23.0 mph 32.2 mph N/A   Partly Cloudy
2:53 PM 84.0 °F 87.0 °F 68.0 °F 58% 29.87 in 10.0 mi South 24.2 mph 31.1 mph N/A   Clear
3:53 PM 84.2 °F 87.3 °F 68.0 °F 58% 29.86 in 10.0 mi South 23.0 mph 29.9 mph N/A   Clear
4:53 PM 82.9 °F 86.5 °F 69.1 °F 63% 29.85 in 10.0 mi South 17.3 mph - N/A   Clear
5:53 PM 81.0 °F 84.4 °F 70.0 °F 69% 29.86 in 10.0 mi South 21.9 mph - N/A   Mostly Cloudy
6:53 PM 79.0 °F - 70.0 °F 74% 29.86 in 10.0 mi South 16.1 mph - N/A   Partly Cloudy
7:53 PM 78.1 °F - 70.0 °F 76% 29.86 in 10.0 mi South 11.5 mph - N/A   Overcast
8:53 PM 78.1 °F - 69.1 °F 74% 29.83 in 10.0 mi South 13.8 mph - N/A   Partly Cloudy
9:53 PM 78.1 °F - 69.1 °F 74% 29.86 in 10.0 mi South 13.8 mph - N/A   Clear
10:53 PM 78.1 °F - 69.1 °F 74% 29.87 in 10.0 mi South 16.1 mph - N/A   Clear
11:53 PM 77.0 °F - 69.1 °F 76% 29.86 in 10.0 mi South 15.0 mph - N/A   Clear